| time (UTC) | temp F | wind direction | speed MPH | gust MPH | rain 1hr in | rain 24hr in | rain mn in | humidity % | barometer mb |
| 20260504050602 | 50 | 139 | 2.0 | 6.0 | 0.00 | 0.00 | 0.00 | 65 | 1011.6 |
| 20260504050502 | 50 | 136 | 2.0 | 6.0 | 0.00 | 0.00 | 0.00 | 65 | 1011.7 |
| 20260504050302 | 50 | 133 | 2.0 | 4.0 | 0.00 | 0.00 | 0.00 | 65 | 1011.6 |
| 20260504050123 | 50 | 137 | 2.0 | 6.0 | 0.00 | 0.00 | 0.00 | 65 | 1011.7 |
| 20260504050002 | 50 | 136 | 2.0 | 6.0 | 0.00 | 0.00 | 0.00 | 65 | 1011.7 |
| 20260504045702 | 50 | 135 | 2.0 | 6.0 | 0.00 | 0.00 | 0.00 | 65 | 1011.7 |
| 20260504045304 | 50 | 138 | 2.0 | 6.0 | 0.00 | 0.00 | 0.00 | 64 | 1011.5 |
| 20260504045202 | 50 | 137 | 2.0 | 4.0 | 0.00 | 0.00 | 0.00 | 64 | 1011.8 |
| 20260504045102 | 50 | 134 | 2.0 | 4.0 | 0.00 | 0.00 | 0.00 | 65 | 1011.7 |
| 20260504044602 | 50 | 142 | 2.0 | 4.0 | 0.00 | 0.00 | 0.00 | 64 | 1011.8 |
| 20260504044423 | 50 | 141 | 2.0 | 4.0 | 0.00 | 0.00 | 0.00 | 64 | 1011.8 |
| 20260504044102 | 50 | 135 | 1.0 | 4.0 | 0.00 | 0.00 | 0.00 | 64 | 1012.0 |
| 20260504043902 | 50 | 133 | 1.0 | 4.0 | 0.00 | 0.00 | 0.00 | 64 | 1012.0 |
| 20260504043802 | 50 | 130 | 2.0 | 4.0 | 0.00 | 0.00 | 0.00 | 64 | 1011.7 |
| 20260504043402 | 50 | 120 | 1.0 | 6.0 | 0.00 | 0.00 | 0.00 | 64 | 1011.7 |
| 20260504043123 | 51 | 123 | 2.0 | 6.0 | 0.00 | 0.00 | 0.00 | 63 | 1012.0 |
| 20260504043002 | 51 | 125 | 2.0 | 6.0 | 0.00 | 0.00 | 0.00 | 63 | 1011.8 |
| 20260504042802 | 51 | 124 | 2.0 | 6.0 | 0.00 | 0.00 | 0.00 | 63 | 1012.0 |
| 20260504042602 | 51 | 135 | 2.0 | 7.0 | 0.00 | 0.00 | 0.00 | 63 | 1011.9 |
| 20260504042402 | 51 | 134 | 2.0 | 8.0 | 0.00 | 0.00 | 0.00 | 62 | 1011.8 |
| 20260504042304 | 51 | 133 | 3.0 | 8.0 | 0.00 | 0.00 | 0.00 | 62 | 1011.9 |
| 20260504042102 | 51 | 129 | 3.0 | 8.0 | 0.00 | 0.00 | 0.00 | 63 | 1011.9 |
| 20260504041823 | 51 | 132 | 3.0 | 8.0 | 0.00 | 0.00 | 0.00 | 62 | 1011.9 |
| 20260504041302 | 51 | 127 | 2.0 | 7.0 | 0.00 | 0.00 | 0.00 | 63 | 1012.2 |
| 20260504041202 | 51 | 129 | 2.0 | 7.0 | 0.00 | 0.00 | 0.00 | 62 | 1012.0 |
| 20260504040802 | 51 | 127 | 2.0 | 4.0 | 0.00 | 0.00 | 0.00 | 63 | 1011.9 |
| 20260504040702 | 51 | 127 | 2.0 | 6.0 | 0.00 | 0.00 | 0.00 | 62 | 1011.9 |
| 20260504040602 | 51 | 127 | 2.0 | 6.0 | 0.00 | 0.00 | 0.00 | 63 | 1012.0 |
| 20260504040502 | 51 | 127 | 2.0 | 6.0 | 0.00 | 0.00 | 0.00 | 63 | 1012.0 |
| 20260504040003 | 51 | 124 | 2.0 | 6.0 | 0.00 | 0.00 | 0.00 | 62 | 1011.8 |
| 20260504035423 | 51 | 127 | 2.0 | 4.0 | 0.00 | 0.00 | 0.00 | 62 | 1011.9 |
| 20260504035304 | 51 | 126 | 2.0 | 4.0 | 0.00 | 0.00 | 0.00 | 62 | 1012.0 |
| 20260504035102 | 51 | 125 | 2.0 | 4.0 | 0.00 | 0.00 | 0.00 | 62 | 1012.0 |
| 20260504034802 | 51 | 130 | 2.0 | 4.0 | 0.00 | 0.00 | 0.00 | 61 | 1012.0 |
| 20260504034723 | 51 | 130 | 2.0 | 4.0 | 0.00 | 0.00 | 0.00 | 61 | 1012.2 |
| 20260504034602 | 51 | 131 | 2.0 | 4.0 | 0.00 | 0.00 | 0.00 | 61 | 1012.3 |
| 20260504034523 | 51 | 131 | 2.0 | 4.0 | 0.00 | 0.00 | 0.00 | 61 | 1012.3 |
| 20260504034423 | 51 | 131 | 2.0 | 4.0 | 0.00 | 0.00 | 0.00 | 61 | 1012.3 |
| 20260504034202 | 51 | 134 | 2.0 | 4.0 | 0.00 | 0.00 | 0.00 | 61 | 1012.2 |
| 20260504033602 | 51 | 132 | 2.0 | 6.0 | 0.00 | 0.00 | 0.00 | 61 | 1012.2 |
| 20260504033502 | 51 | 134 | 2.0 | 6.0 | 0.00 | 0.00 | 0.00 | 61 | 1012.5 |
| 20260504033102 | 51 | 133 | 2.0 | 6.0 | 0.00 | 0.00 | 0.00 | 61 | 1012.5 |
| 20260504032623 | 51 | 136 | 1.0 | 4.0 | 0.00 | 0.00 | 0.00 | 61 | 1012.5 |
| 20260504032223 | 51 | 136 | 2.0 | 4.0 | 0.00 | 0.00 | 0.00 | 60 | 1012.5 |
| 20260504032002 | 51 | 135 | 2.0 | 7.0 | 0.00 | 0.00 | 0.00 | 60 | 1012.6 |
| 20260504031723 | 52 | 135 | 2.0 | 7.0 | 0.00 | 0.00 | 0.00 | 60 | 1012.5 |
| 20260504031602 | 52 | 137 | 2.0 | 7.0 | 0.00 | 0.00 | 0.00 | 60 | 1012.6 |
| 20260504031523 | 52 | 137 | 1.0 | 7.0 | 0.00 | 0.00 | 0.00 | 60 | 1012.7 |
| 20260504031102 | 52 | 136 | 1.0 | 7.0 | 0.00 | 0.00 | 0.00 | 59 | 1012.6 |
| 20260504031002 | 52 | 135 | 1.0 | 4.0 | 0.00 | 0.00 | 0.00 | 60 | 1012.6 |
| 20260504030902 | 52 | 136 | 1.0 | 4.0 | 0.00 | 0.00 | 0.00 | 60 | 1012.6 |
| 20260504030802 | 52 | 139 | 2.0 | 4.0 | 0.00 | 0.00 | 0.00 | 60 | 1012.5 |
| 20260504030602 | 52 | 139 | 1.0 | 4.0 | 0.00 | 0.00 | 0.00 | 60 | 1012.5 |
| 20260504030202 | 52 | 139 | 1.0 | 4.0 | 0.00 | 0.00 | 0.00 | 59 | 1012.6 |
| 20260504030023 | 52 | 144 | 1.0 | 7.0 | 0.00 | 0.00 | 0.00 | 59 | 1012.6 |
| 20260504025802 | 52 | 144 | 1.0 | 7.0 | 0.00 | 0.00 | 0.00 | 59 | 1012.7 |
| 20260504025402 | 52 | 149 | 1.0 | 7.0 | 0.00 | 0.00 | 0.00 | 59 | 1012.8 |
| 20260504025304 | 52 | 153 | 1.0 | 7.0 | 0.00 | 0.00 | 0.00 | 59 | 1012.8 |
| 20260504025223 | 52 | 154 | 1.0 | 7.0 | 0.00 | 0.00 | 0.00 | 59 | 1012.8 |
| 20260504025002 | 52 | 153 | 1.0 | 6.0 | 0.00 | 0.00 | 0.00 | 59 | 1012.8 |
| 20260504024923 | 52 | 156 | 2.0 | 6.0 | 0.00 | 0.00 | 0.00 | 59 | 1012.8 |
| 20260504024802 | 52 | 166 | 2.0 | 6.0 | 0.00 | 0.00 | 0.00 | 59 | 1012.8 |
| 20260504024602 | 52 | 182 | 2.0 | 8.0 | 0.00 | 0.00 | 0.00 | 59 | 1012.9 |
| 20260504024102 | 52 | 198 | 2.0 | 8.0 | 0.00 | 0.00 | 0.00 | 58 | 1012.9 |
| 20260504024002 | 52 | 201 | 2.0 | 8.0 | 0.00 | 0.00 | 0.00 | 58 | 1012.9 |
| 20260504023323 | 52 | 217 | 3.0 | 9.0 | 0.00 | 0.00 | 0.00 | 57 | 1013.1 |
| 20260504022602 | 52 | 219 | 3.0 | 10.0 | 0.00 | 0.00 | 0.00 | 56 | 1013.2 |
| 20260504022402 | 52 | 207 | 2.0 | 10.0 | 0.00 | 0.00 | 0.00 | 56 | 1013.2 |
| 20260504021823 | 52 | 219 | 3.0 | 10.0 | 0.00 | 0.00 | 0.00 | 54 | 1013.2 |
| 20260504021423 | 52 | 222 | 3.0 | 10.0 | 0.00 | 0.00 | 0.00 | 54 | 1013.0 |
| 20260504021102 | 53 | 241 | 4.0 | 11.0 | 0.00 | 0.00 | 0.00 | 53 | 1012.9 |
| 20260504020902 | 53 | 237 | 4.0 | 11.0 | 0.00 | 0.00 | 0.00 | 53 | 1013.1 |
| 20260504020502 | 53 | 230 | 4.0 | 11.0 | 0.00 | 0.00 | 0.00 | 53 | 1013.0 |
| 20260504020402 | 53 | 226 | 4.0 | 11.0 | 0.00 | 0.00 | 0.00 | 53 | 1013.0 |
| 20260504020302 | 53 | 220 | 4.0 | 11.0 | 0.00 | 0.00 | 0.00 | 53 | 1013.1 |
| 20260504015902 | 52 | 189 | 2.0 | 9.0 | 0.00 | 0.00 | 0.00 | 53 | 1012.8 |
| 20260504015802 | 52 | 185 | 2.0 | 9.0 | 0.00 | 0.00 | 0.00 | 53 | 1012.9 |
| 20260504015602 | 50 | 177 | 1.0 | 9.0 | 0.00 | 0.00 | 0.00 | 55 | 1012.7 |
| 20260504015523 | 50 | 160 | 1.0 | 9.0 | 0.00 | 0.00 | 0.00 | 57 | 1012.7 |
| 20260504015202 | 50 | 130 | 0.0 | 2.0 | 0.00 | 0.00 | 0.00 | 61 | 1012.7 |
| 20260504015123 | 50 | 129 | 0.0 | 2.0 | 0.00 | 0.00 | 0.00 | 60 | 1012.7 |
| 20260504014902 | 50 | 128 | 0.0 | 2.0 | 0.00 | 0.00 | 0.00 | 57 | 1012.6 |
| 20260504014702 | 50 | 124 | 0.0 | 1.0 | 0.00 | 0.00 | 0.00 | 57 | 1012.5 |
| 20260504014624 | 50 | 123 | 0.0 | 1.0 | 0.00 | 0.00 | 0.00 | 56 | 1012.6 |
| 20260504014402 | 51 | 119 | 0.0 | 1.0 | 0.00 | 0.00 | 0.00 | 56 | 1012.4 |
| 20260504014323 | 51 | 119 | 0.0 | 1.0 | 0.00 | 0.00 | 0.00 | 56 | 1012.4 |
| 20260504014223 | 51 | 118 | 0.0 | 1.0 | 0.00 | 0.00 | 0.00 | 56 | 1012.4 |
| 20260504014102 | 51 | 117 | 0.0 | 1.0 | 0.00 | 0.00 | 0.00 | 55 | 1012.4 |
| 20260504013602 | 52 | 119 | 0.0 | 2.0 | 0.00 | 0.00 | 0.00 | 54 | 1012.4 |
| 20260504013523 | 52 | 119 | 0.0 | 2.0 | 0.00 | 0.00 | 0.00 | 54 | 1012.5 |
| 20260504013423 | 52 | 120 | 0.0 | 2.0 | 0.00 | 0.00 | 0.00 | 53 | 1012.4 |
| 20260504013302 | 52 | 120 | 0.0 | 2.0 | 0.00 | 0.00 | 0.00 | 53 | 1012.3 |
| 20260504012902 | 52 | 120 | 0.0 | 1.0 | 0.00 | 0.00 | 0.00 | 54 | 1012.5 |
| 20260504012602 | 52 | 133 | 0.0 | 2.0 | 0.00 | 0.00 | 0.00 | 53 | 1012.3 |
| 20260504012502 | 52 | 133 | 0.0 | 2.0 | 0.00 | 0.00 | 0.00 | 52 | 1012.2 |
| 20260504012423 | 52 | 135 | 0.0 | 2.0 | 0.00 | 0.00 | 0.00 | 53 | 1012.3 |
| 20260504012123 | 53 | 132 | 0.0 | 2.0 | 0.00 | 0.00 | 0.00 | 51 | 1012.0 |
| 20260504011902 | 53 | 128 | 0.0 | 2.0 | 0.00 | 0.00 | 0.00 | 51 | 1012.3 |
| 20260504011823 | 53 | 128 | 0.0 | 2.0 | 0.00 | 0.00 | 0.00 | 51 | 1012.3 |
| 20260504011602 | 53 | 134 | 1.0 | 4.0 | 0.00 | 0.00 | 0.00 | 51 | 1012.3 |
| 20260504011102 | 54 | 134 | 1.0 | 4.0 | 0.00 | 0.00 | 0.00 | 50 | 1012.2 |
| 20260504011002 | 54 | 135 | 1.0 | 4.0 | 0.00 | 0.00 | 0.00 | 50 | 1012.3 |
| 20260504010623 | 54 | 131 | 1.0 | 2.0 | 0.00 | 0.00 | 0.00 | 49 | 1012.5 |
| 20260504010502 | 54 | 132 | 1.0 | 2.0 | 0.00 | 0.00 | 0.00 | 49 | 1012.2 |
| 20260504010123 | 54 | 142 | 1.0 | 6.0 | 0.00 | 0.00 | 0.00 | 48 | 1012.4 |
| 20260504005923 | 54 | 144 | 1.0 | 6.0 | 0.00 | 0.00 | 0.00 | 49 | 1012.4 |
| 20260504005804 | 54 | 147 | 1.0 | 6.0 | 0.00 | 0.00 | 0.00 | 48 | 1012.5 |
| 20260504005602 | 55 | 147 | 1.0 | 6.0 | 0.00 | 0.00 | 0.00 | 48 | 1012.3 |
| 20260504004903 | 55 | 140 | 1.0 | 3.0 | 0.00 | 0.00 | 0.00 | 47 | 1012.2 |
| 20260504004602 | 55 | 158 | 1.0 | 4.0 | 0.00 | 0.00 | 0.00 | 46 | 1012.3 |
| 20260504004002 | 56 | 157 | 1.0 | 4.0 | 0.00 | 0.00 | 0.00 | 45 | 1012.0 |
| 20260504003702 | 56 | 155 | 1.0 | 4.0 | 0.00 | 0.00 | 0.00 | 45 | 1012.2 |
| 20260504003602 | 56 | 162 | 1.0 | 4.0 | 0.00 | 0.00 | 0.00 | 44 | 1012.0 |
| 20260504003223 | 56 | 181 | 2.0 | 7.0 | 0.00 | 0.00 | 0.00 | 44 | 1012.2 |
| 20260504003102 | 56 | 180 | 2.0 | 7.0 | 0.00 | 0.00 | 0.00 | 44 | 1012.2 |
| 20260504002902 | 56 | 174 | 3.0 | 8.0 | 0.00 | 0.00 | 0.00 | 44 | 1012.2 |
| 20260504002223 | 57 | 173 | 2.0 | 11.0 | 0.00 | 0.00 | 0.00 | 44 | 1012.2 |
| 20260504002002 | 57 | 182 | 3.0 | 11.0 | 0.00 | 0.00 | 0.00 | 43 | 1011.9 |
| 20260504001823 | 57 | 185 | 2.0 | 7.0 | 0.00 | 0.00 | 0.00 | 43 | 1011.8 |
| 20260504001602 | 57 | 190 | 3.0 | 8.0 | 0.00 | 0.00 | 0.00 | 43 | 1012.0 |
| 20260504001123 | 58 | 207 | 4.0 | 15.0 | 0.00 | 0.00 | 0.00 | 42 | 1012.3 |
| 20260504001002 | 58 | 207 | 4.0 | 15.0 | 0.00 | 0.00 | 0.00 | 42 | 1012.0 |
| 20260504000602 | 58 | 201 | 4.0 | 15.0 | 0.00 | 0.00 | 0.00 | 41 | 1012.2 |
| 20260504000323 | 58 | 183 | 3.0 | 15.0 | 0.00 | 0.00 | 0.00 | 41 | 1012.2 |
| 20260504000002 | 58 | 186 | 3.0 | 9.0 | 0.00 | 0.00 | 0.00 | 42 | 1012.2 |
| 20260503235823 | 58 | 192 | 3.0 | 9.0 | 0.00 | 0.00 | 0.00 | 41 | 1011.9 |
| 20260503235702 | 59 | 203 | 4.0 | 9.0 | 0.00 | 0.00 | 0.00 | 41 | 1012.2 |
| 20260503235602 | 58 | 214 | 4.0 | 9.0 | 0.00 | 0.00 | 0.00 | 42 | 1012.0 |
| 20260503235423 | 58 | 222 | 4.0 | 9.0 | 0.00 | 0.00 | 0.00 | 41 | 1012.2 |
| 20260503235202 | 58 | 228 | 4.0 | 9.0 | 0.00 | 0.00 | 0.00 | 41 | 1012.2 |
| 20260503235102 | 58 | 234 | 4.0 | 9.0 | 0.00 | 0.00 | 0.00 | 42 | 1012.3 |
| 20260503234602 | 58 | 229 | 3.0 | 9.0 | 0.00 | 0.00 | 0.00 | 41 | 1012.2 |
| 20260503234502 | 58 | 219 | 3.0 | 9.0 | 0.00 | 0.00 | 0.00 | 42 | 1012.3 |
| 20260503234102 | 58 | 221 | 3.0 | 11.0 | 0.00 | 0.00 | 0.00 | 42 | 1012.2 |
| 20260503234002 | 58 | 217 | 3.0 | 11.0 | 0.00 | 0.00 | 0.00 | 42 | 1012.3 |
| 20260503233902 | 58 | 224 | 3.0 | 11.0 | 0.00 | 0.00 | 0.00 | 42 | 1012.3 |
| 20260503233602 | 58 | 209 | 3.0 | 11.0 | 0.00 | 0.00 | 0.00 | 43 | 1012.2 |
| 20260503233402 | 58 | 211 | 4.0 | 11.0 | 0.00 | 0.00 | 0.00 | 43 | 1012.3 |
| 20260503233302 | 58 | 213 | 4.0 | 11.0 | 0.00 | 0.00 | 0.00 | 43 | 1012.3 |
| 20260503233102 | 58 | 212 | 4.0 | 8.0 | 0.00 | 0.00 | 0.00 | 42 | 1012.4 |
| 20260503233023 | 58 | 214 | 3.0 | 8.0 | 0.00 | 0.00 | 0.00 | 42 | 1012.3 |
| 20260503232802 | 58 | 212 | 3.0 | 8.0 | 0.00 | 0.00 | 0.00 | 42 | 1012.3 |
| 20260503232323 | 58 | 205 | 3.0 | 9.0 | 0.00 | 0.00 | 0.00 | 42 | 1012.2 |
| 20260503231202 | 58 | 212 | 6.0 | 16.0 | 0.00 | 0.00 | 0.00 | 42 | 1012.4 |
| 20260503231002 | 58 | 212 | 6.0 | 16.0 | 0.00 | 0.00 | 0.00 | 41 | 1012.3 |
| 20260503230902 | 58 | 210 | 5.0 | 16.0 | 0.00 | 0.00 | 0.00 | 41 | 1012.4 |
| 20260503230623 | 59 | 214 | 4.0 | 16.0 | 0.00 | 0.00 | 0.00 | 41 | 1012.4 |
| 20260503230323 | 59 | 198 | 4.0 | 10.0 | 0.00 | 0.00 | 0.00 | 42 | 1012.4 |
| 20260503230202 | 58 | 197 | 4.0 | 10.0 | 0.00 | 0.00 | 0.00 | 42 | 1012.4 |
| 20260503225902 | 58 | 198 | 4.0 | 10.0 | 0.00 | 0.00 | 0.00 | 42 | 1012.5 |
| 20260503225602 | 59 | 200 | 4.0 | 10.0 | 0.00 | 0.00 | 0.00 | 42 | 1012.3 |
| 20260503225402 | 58 | 213 | 4.0 | 10.0 | 0.00 | 0.00 | 0.00 | 41 | 1012.7 |
| 20260503225123 | 58 | 218 | 4.0 | 9.0 | 0.00 | 0.00 | 0.00 | 42 | 1012.4 |
| 20260503225002 | 58 | 215 | 4.0 | 9.0 | 0.00 | 0.00 | 0.00 | 42 | 1012.5 |
| 20260503224902 | 58 | 213 | 4.0 | 9.0 | 0.00 | 0.00 | 0.00 | 42 | 1012.4 |
| 20260503224802 | 58 | 211 | 4.0 | 9.0 | 0.00 | 0.00 | 0.00 | 41 | 1012.4 |
| 20260503224302 | 59 | 206 | 4.0 | 13.0 | 0.00 | 0.00 | 0.00 | 42 | 1012.4 |
| 20260503224202 | 59 | 214 | 4.0 | 13.0 | 0.00 | 0.00 | 0.00 | 42 | 1012.4 |
| 20260503223902 | 59 | 234 | 5.0 | 15.0 | 0.00 | 0.00 | 0.00 | 42 | 1012.5 |
| 20260503223702 | 59 | 228 | 5.0 | 15.0 | 0.00 | 0.00 | 0.00 | 42 | 1012.6 |
| 20260503223602 | 59 | 231 | 5.0 | 15.0 | 0.00 | 0.00 | 0.00 | 42 | 1012.7 |
| 20260503223102 | 60 | 217 | 4.0 | 15.0 | 0.00 | 0.00 | 0.00 | 41 | 1012.6 |
| 20260503223002 | 60 | 213 | 4.0 | 14.0 | 0.00 | 0.00 | 0.00 | 40 | 1012.7 |
| 20260503222602 | 60 | 205 | 5.0 | 13.0 | 0.00 | 0.00 | 0.00 | 41 | 1012.7 |
| 20260503222502 | 60 | 207 | 6.0 | 13.0 | 0.00 | 0.00 | 0.00 | 40 | 1012.5 |
| 20260503222402 | 60 | 212 | 6.0 | 13.0 | 0.00 | 0.00 | 0.00 | 39 | 1012.5 |
| 20260503222102 | 60 | 226 | 7.0 | 14.0 | 0.00 | 0.00 | 0.00 | 40 | 1012.5 |
| 20260503221802 | 59 | 225 | 6.0 | 14.0 | 0.00 | 0.00 | 0.00 | 40 | 1012.8 |
| 20260503221702 | 59 | 227 | 6.0 | 14.0 | 0.00 | 0.00 | 0.00 | 39 | 1012.8 |
| 20260503221623 | 59 | 231 | 7.0 | 22.0 | 0.00 | 0.00 | 0.00 | 41 | 1012.7 |
| 20260503221402 | 59 | 229 | 8.0 | 22.0 | 0.00 | 0.00 | 0.00 | 40 | 1012.8 |
| 20260503221302 | 60 | 227 | 8.0 | 22.0 | 0.00 | 0.00 | 0.00 | 40 | 1012.7 |
| 20260503221102 | 60 | 221 | 7.0 | 22.0 | 0.00 | 0.00 | 0.00 | 39 | 1012.7 |
| 20260503221002 | 59 | 223 | 7.0 | 22.0 | 0.00 | 0.00 | 0.00 | 40 | 1012.7 |
| 20260503220903 | 59 | 231 | 7.0 | 22.0 | 0.00 | 0.00 | 0.00 | 40 | 1012.9 |
| 20260503220702 | 59 | 232 | 8.0 | 22.0 | 0.00 | 0.00 | 0.00 | 40 | 1012.9 |
| 20260503220502 | 59 | 235 | 7.0 | 18.0 | 0.00 | 0.00 | 0.00 | 40 | 1012.8 |
| 20260503220402 | 59 | 237 | 7.0 | 18.0 | 0.00 | 0.00 | 0.00 | 41 | 1012.6 |
| 20260503220323 | 59 | 233 | 7.0 | 18.0 | 0.00 | 0.00 | 0.00 | 40 | 1012.6 |
| 20260503220202 | 59 | 230 | 7.0 | 16.0 | 0.00 | 0.00 | 0.00 | 41 | 1012.7 |
| 20260503215902 | 59 | 223 | 6.0 | 16.0 | 0.00 | 0.00 | 0.00 | 40 | 1012.8 |
| 20260503215602 | 59 | 215 | 5.0 | 14.0 | 0.00 | 0.00 | 0.00 | 40 | 1012.7 |
| 20260503215502 | 59 | 216 | 5.0 | 14.0 | 0.00 | 0.00 | 0.00 | 41 | 1012.8 |
| 20260503215123 | 59 | 216 | 4.0 | 14.0 | 0.00 | 0.00 | 0.00 | 41 | 1012.8 |
| 20260503215023 | 59 | 221 | 4.0 | 14.0 | 0.00 | 0.00 | 0.00 | 41 | 1012.5 |
| 20260503214902 | 59 | 211 | 4.0 | 14.0 | 0.00 | 0.00 | 0.00 | 41 | 1012.6 |
| 20260503214823 | 59 | 211 | 4.0 | 14.0 | 0.00 | 0.00 | 0.00 | 42 | 1012.7 |
| 20260503214702 | 59 | 222 | 4.0 | 14.0 | 0.00 | 0.00 | 0.00 | 41 | 1012.9 |
| 20260503214602 | 59 | 215 | 4.0 | 14.0 | 0.00 | 0.00 | 0.00 | 42 | 1012.7 |
| 20260503214502 | 59 | 210 | 4.0 | 14.0 | 0.00 | 0.00 | 0.00 | 41 | 1012.5 |
| 20260503214402 | 59 | 217 | 4.0 | 14.0 | 0.00 | 0.00 | 0.00 | 41 | 1012.7 |
| 20260503214023 | 59 | 227 | 5.0 | 15.0 | 0.00 | 0.00 | 0.00 | 41 | 1012.6 |
| 20260503213802 | 59 | 217 | 7.0 | 18.0 | 0.00 | 0.00 | 0.00 | 41 | 1012.6 |
| 20260503213723 | 59 | 222 | 7.0 | 18.0 | 0.00 | 0.00 | 0.00 | 40 | 1012.7 |
| 20260503213302 | 59 | 217 | 7.0 | 18.0 | 0.00 | 0.00 | 0.00 | 40 | 1012.6 |
| 20260503213123 | 59 | 213 | 7.0 | 18.0 | 0.00 | 0.00 | 0.00 | 41 | 1012.6 |
| 20260503213002 | 59 | 218 | 7.0 | 17.0 | 0.00 | 0.00 | 0.00 | 40 | 1012.8 |
| 20260503212702 | 60 | 221 | 6.0 | 16.0 | 0.00 | 0.00 | 0.00 | 40 | 1012.8 |
| 20260503212602 | 60 | 222 | 6.0 | 16.0 | 0.00 | 0.00 | 0.00 | 40 | 1012.6 |
| 20260503212402 | 60 | 227 | 6.0 | 14.0 | 0.00 | 0.00 | 0.00 | 40 | 1012.6 |
| 20260503212102 | 59 | 229 | 6.0 | 14.0 | 0.00 | 0.00 | 0.00 | 40 | 1012.5 |
| 20260503212002 | 59 | 230 | 7.0 | 14.0 | 0.00 | 0.00 | 0.00 | 39 | 1012.6 |
| 20260503211902 | 60 | 235 | 6.0 | 14.0 | 0.00 | 0.00 | 0.00 | 39 | 1012.7 |
| 20260503211802 | 59 | 232 | 6.0 | 14.0 | 0.00 | 0.00 | 0.00 | 40 | 1012.6 |
| 20260503211402 | 59 | 233 | 6.0 | 14.0 | 0.00 | 0.00 | 0.00 | 39 | 1012.7 |
| 20260503211202 | 59 | 237 | 6.0 | 14.0 | 0.00 | 0.00 | 0.00 | 41 | 1012.6 |
| 20260503211102 | 60 | 240 | 6.0 | 14.0 | 0.00 | 0.00 | 0.00 | 39 | 1012.6 |
| 20260503210902 | 60 | 234 | 5.0 | 13.0 | 0.00 | 0.00 | 0.00 | 39 | 1012.6 |
| 20260503210702 | 60 | 238 | 5.0 | 13.0 | 0.00 | 0.00 | 0.00 | 40 | 1012.7 |
| 20260503210323 | 61 | 226 | 4.0 | 10.0 | 0.00 | 0.00 | 0.00 | 39 | 1012.5 |
| 20260503210202 | 60 | 224 | 4.0 | 10.0 | 0.00 | 0.00 | 0.00 | 38 | 1012.3 |
| 20260503210002 | 60 | 213 | 4.0 | 10.0 | 0.00 | 0.00 | 0.00 | 39 | 1012.7 |
| 20260503205902 | 60 | 221 | 4.0 | 10.0 | 0.00 | 0.00 | 0.00 | 39 | 1012.5 |
| 20260503205802 | 60 | 221 | 4.0 | 10.0 | 0.00 | 0.00 | 0.00 | 39 | 1012.5 |
| 20260503205602 | 60 | 210 | 4.0 | 10.0 | 0.00 | 0.00 | 0.00 | 38 | 1012.7 |
| 20260503205502 | 60 | 199 | 4.0 | 10.0 | 0.00 | 0.00 | 0.00 | 40 | 1012.5 |
| 20260503205423 | 60 | 210 | 4.0 | 10.0 | 0.00 | 0.00 | 0.00 | 39 | 1012.5 |
| 20260503205304 | 61 | 207 | 5.0 | 11.0 | 0.00 | 0.00 | 0.00 | 38 | 1012.5 |
| 20260503205202 | 61 | 188 | 5.0 | 13.0 | 0.00 | 0.00 | 0.00 | 39 | 1012.7 |
| 20260503205102 | 61 | 193 | 4.0 | 13.0 | 0.00 | 0.00 | 0.00 | 38 | 1012.7 |
| 20260503204902 | 61 | 199 | 5.0 | 13.0 | 0.00 | 0.00 | 0.00 | 39 | 1012.7 |
| 20260503204102 | 61 | 227 | 6.0 | 15.0 | 0.00 | 0.00 | 0.00 | 39 | 1012.6 |
| 20260503203923 | 61 | 223 | 6.0 | 15.0 | 0.00 | 0.00 | 0.00 | 39 | 1012.4 |
| 20260503203623 | 62 | 228 | 6.0 | 15.0 | 0.00 | 0.00 | 0.00 | 38 | 1012.7 |
| 20260503203402 | 62 | 232 | 6.0 | 15.0 | 0.00 | 0.00 | 0.00 | 38 | 1012.5 |
| 20260503203102 | 60 | 216 | 6.0 | 15.0 | 0.00 | 0.00 | 0.00 | 39 | 1012.7 |
| 20260503202902 | 59 | 220 | 7.0 | 15.0 | 0.00 | 0.00 | 0.00 | 39 | 1012.8 |
| 20260503202802 | 59 | 220 | 7.0 | 14.0 | 0.00 | 0.00 | 0.00 | 39 | 1012.8 |
| 20260503202702 | 59 | 217 | 6.0 | 14.0 | 0.00 | 0.00 | 0.00 | 39 | 1012.7 |
| 20260503202423 | 59 | 207 | 6.0 | 16.0 | 0.00 | 0.00 | 0.00 | 39 | 1012.7 |
| 20260503202123 | 59 | 216 | 6.0 | 16.0 | 0.00 | 0.00 | 0.00 | 40 | 1012.8 |
| 20260503201803 | 59 | 205 | 6.0 | 16.0 | 0.00 | 0.00 | 0.00 | 40 | 1012.9 |
| 20260503201602 | 60 | 203 | 5.0 | 16.0 | 0.00 | 0.00 | 0.00 | 39 | 1012.9 |
| 20260503200902 | 60 | 240 | 7.0 | 17.0 | 0.00 | 0.00 | 0.00 | 40 | 1013.1 |
| 20260503200824 | 60 | 243 | 7.0 | 17.0 | 0.00 | 0.00 | 0.00 | 40 | 1013.2 |
| 20260503200702 | 60 | 242 | 7.0 | 17.0 | 0.00 | 0.00 | 0.00 | 40 | 1013.1 |
| 20260503200602 | 60 | 238 | 7.0 | 17.0 | 0.00 | 0.00 | 0.00 | 40 | 1013.2 |
| 20260503200502 | 60 | 241 | 7.0 | 17.0 | 0.00 | 0.00 | 0.00 | 39 | 1013.1 |
| 20260503195802 | 59 | 196 | 7.0 | 17.0 | 0.00 | 0.00 | 0.00 | 40 | 1013.2 |
| 20260503195602 | 59 | 198 | 6.0 | 17.0 | 0.00 | 0.00 | 0.00 | 39 | 1013.2 |
| 20260503195304 | 59 | 197 | 6.0 | 15.0 | 0.00 | 0.00 | 0.00 | 40 | 1013.3 |
| 20260503195102 | 60 | 211 | 6.0 | 15.0 | 0.00 | 0.00 | 0.00 | 39 | 1013.2 |
| 20260503194902 | 60 | 226 | 6.0 | 15.0 | 0.00 | 0.00 | 0.00 | 39 | 1013.5 |
| 20260503194803 | 60 | 227 | 6.0 | 14.0 | 0.00 | 0.00 | 0.00 | 39 | 1013.3 |
| 20260503194402 | 60 | 226 | 5.0 | 14.0 | 0.00 | 0.00 | 0.00 | 40 | 1013.5 |
| 20260503194302 | 60 | 225 | 5.0 | 14.0 | 0.00 | 0.00 | 0.00 | 39 | 1013.5 |
| 20260503193903 | 60 | 211 | 5.0 | 14.0 | 0.00 | 0.00 | 0.00 | 39 | 1013.6 |
| 20260503193602 | 59 | 203 | 4.0 | 11.0 | 0.00 | 0.00 | 0.00 | 42 | 1013.6 |
| 20260503193523 | 59 | 203 | 4.0 | 11.0 | 0.00 | 0.00 | 0.00 | 41 | 1013.4 |
| 20260503193123 | 59 | 187 | 4.0 | 11.0 | 0.00 | 0.00 | 0.00 | 40 | 1013.6 |
| 20260503192702 | 59 | 225 | 5.0 | 17.0 | 0.00 | 0.00 | 0.00 | 39 | 1013.6 |
| 20260503192323 | 59 | 252 | 6.0 | 17.0 | 0.00 | 0.00 | 0.00 | 40 | 1013.7 |
| 20260503192202 | 59 | 251 | 7.0 | 17.0 | 0.00 | 0.00 | 0.00 | 39 | 1013.6 |
| 20260503192102 | 59 | 246 | 7.0 | 17.0 | 0.00 | 0.00 | 0.00 | 38 | 1013.9 |
| 20260503191902 | 58 | 239 | 7.0 | 17.0 | 0.00 | 0.00 | 0.00 | 40 | 1013.9 |
| 20260503191602 | 59 | 213 | 6.0 | 15.0 | 0.00 | 0.00 | 0.00 | 40 | 1013.9 |
| 20260503191502 | 59 | 207 | 5.0 | 14.0 | 0.00 | 0.00 | 0.00 | 38 | 1014.0 |
| 20260503191403 | 60 | 202 | 5.0 | 14.0 | 0.00 | 0.00 | 0.00 | 38 | 1014.1 |
| 20260503191323 | 60 | 198 | 5.0 | 14.0 | 0.00 | 0.00 | 0.00 | 38 | 1013.9 |
| 20260503191102 | 59 | 213 | 5.0 | 16.0 | 0.00 | 0.00 | 0.00 | 38 | 1013.9 |
| 20260503190902 | 59 | 222 | 5.0 | 16.0 | 0.00 | 0.00 | 0.00 | 39 | 1013.9 |
| 20260503190823 | 59 | 223 | 5.0 | 16.0 | 0.00 | 0.00 | 0.00 | 39 | 1013.9 |
| 20260503190703 | 60 | 234 | 5.0 | 16.0 | 0.00 | 0.00 | 0.00 | 37 | 1013.7 |
| 20260503190602 | 60 | 229 | 6.0 | 16.0 | 0.00 | 0.00 | 0.00 | 36 | 1013.8 |
| 20260503190502 | 60 | 226 | 6.0 | 16.0 | 0.00 | 0.00 | 0.00 | 38 | 1014.1 |
| 20260503190423 | 60 | 228 | 6.0 | 16.0 | 0.00 | 0.00 | 0.00 | 38 | 1013.8 |
| 20260503190302 | 60 | 231 | 6.0 | 16.0 | 0.00 | 0.00 | 0.00 | 37 | 1014.1 |
| 20260503185802 | 61 | 215 | 5.0 | 13.0 | 0.00 | 0.00 | 0.00 | 37 | 1014.0 |
| 20260503185603 | 60 | 215 | 5.0 | 13.0 | 0.00 | 0.00 | 0.00 | 38 | 1014.0 |
| 20260503185403 | 60 | 235 | 6.0 | 13.0 | 0.00 | 0.00 | 0.00 | 37 | 1014.1 |
| 20260503185102 | 60 | 253 | 7.0 | 17.0 | 0.00 | 0.00 | 0.00 | 39 | 1014.0 |
| 20260503185002 | 59 | 256 | 7.0 | 17.0 | 0.00 | 0.00 | 0.00 | 39 | 1013.9 |
| 20260503184802 | 59 | 263 | 7.0 | 17.0 | 0.00 | 0.00 | 0.00 | 40 | 1014.0 |
| 20260503184602 | 59 | 268 | 7.0 | 17.0 | 0.00 | 0.00 | 0.00 | 40 | 1014.0 |
| 20260503184302 | 59 | 265 | 6.0 | 16.0 | 0.00 | 0.00 | 0.00 | 38 | 1013.9 |
| 20260503184202 | 59 | 260 | 5.0 | 16.0 | 0.00 | 0.00 | 0.00 | 37 | 1014.2 |
| 20260503184102 | 60 | 254 | 5.0 | 13.0 | 0.00 | 0.00 | 0.00 | 38 | 1014.3 |
| 20260503184002 | 61 | 252 | 5.0 | 14.0 | 0.00 | 0.00 | 0.00 | 38 | 1014.2 |
| 20260503183603 | 60 | 242 | 6.0 | 23.0 | 0.00 | 0.00 | 0.00 | 39 | 1014.3 |
| 20260503183523 | 60 | 234 | 6.0 | 23.0 | 0.00 | 0.00 | 0.00 | 40 | 1014.3 |
| 20260503183403 | 58 | 231 | 7.0 | 23.0 | 0.00 | 0.00 | 0.00 | 40 | 1014.3 |
| 20260503183202 | 58 | 226 | 8.0 | 23.0 | 0.00 | 0.00 | 0.00 | 39 | 1014.4 |
| 20260503183102 | 59 | 223 | 8.0 | 23.0 | 0.00 | 0.00 | 0.00 | 39 | 1014.5 |
| 20260503182802 | 60 | 190 | 7.0 | 17.0 | 0.00 | 0.00 | 0.00 | 39 | 1014.2 |
| 20260503182602 | 59 | 197 | 6.0 | 17.0 | 0.00 | 0.00 | 0.00 | 40 | 1014.4 |
| 20260503182523 | 59 | 201 | 6.0 | 17.0 | 0.00 | 0.00 | 0.00 | 41 | 1014.3 |
| 20260503182402 | 59 | 201 | 6.0 | 17.0 | 0.00 | 0.00 | 0.00 | 41 | 1014.4 |
| 20260503182202 | 60 | 210 | 6.0 | 18.0 | 0.00 | 0.00 | 0.00 | 39 | 1014.5 |
| 20260503182102 | 60 | 214 | 6.0 | 18.0 | 0.00 | 0.00 | 0.00 | 39 | 1014.2 |
| 20260503181902 | 59 | 233 | 6.0 | 18.0 | 0.00 | 0.00 | 0.00 | 40 | 1014.4 |
| 20260503181603 | 59 | 231 | 7.0 | 18.0 | 0.00 | 0.00 | 0.00 | 39 | 1014.4 |
| 20260503181402 | 59 | 230 | 7.0 | 18.0 | 0.00 | 0.00 | 0.00 | 40 | 1014.5 |
| 20260503181202 | 59 | 234 | 7.0 | 15.0 | 0.00 | 0.00 | 0.00 | 43 | 1014.4 |
| 20260503180323 | 58 | 248 | 7.0 | 17.0 | 0.00 | 0.00 | 0.00 | 42 | 1014.6 |
| 20260503180202 | 58 | 241 | 7.0 | 17.0 | 0.00 | 0.00 | 0.00 | 41 | 1014.5 |
| 20260503180003 | 58 | 242 | 7.0 | 17.0 | 0.00 | 0.00 | 0.00 | 41 | 1014.8 |
| 20260503175502 | 60 | 230 | 6.0 | 14.0 | 0.00 | 0.00 | 0.00 | 42 | 1014.7 |
| 20260503175202 | 59 | 221 | 6.0 | 14.0 | 0.00 | 0.00 | 0.00 | 42 | 1014.7 |
| 20260503175102 | 59 | 222 | 7.0 | 15.0 | 0.00 | 0.00 | 0.00 | 41 | 1014.8 |
| 20260503174602 | 60 | 228 | 6.0 | 17.0 | 0.00 | 0.00 | 0.00 | 40 | 1014.6 |
| 20260503174402 | 59 | 229 | 7.0 | 17.0 | 0.00 | 0.00 | 0.00 | 42 | 1014.7 |
| 20260503174202 | 59 | 237 | 6.0 | 17.0 | 0.00 | 0.00 | 0.00 | 42 | 1014.9 |
| 20260503174102 | 59 | 237 | 6.0 | 17.0 | 0.00 | 0.00 | 0.00 | 41 | 1014.8 |
| 20260503173902 | 59 | 233 | 5.0 | 16.0 | 0.00 | 0.00 | 0.00 | 42 | 1015.0 |
| 20260503173202 | 60 | 248 | 5.0 | 15.0 | 0.00 | 0.00 | 0.00 | 42 | 1014.9 |
| 20260503172902 | 59 | 249 | 5.0 | 15.0 | 0.00 | 0.00 | 0.00 | 45 | 1015.0 |
| 20260503172802 | 58 | 242 | 5.0 | 15.0 | 0.00 | 0.00 | 0.00 | 44 | 1014.9 |
| 20260503172602 | 58 | 237 | 5.0 | 15.0 | 0.00 | 0.00 | 0.00 | 43 | 1015.1 |
| 20260503172402 | 58 | 231 | 5.0 | 13.0 | 0.00 | 0.00 | 0.00 | 42 | 1015.0 |
| 20260503172202 | 60 | 228 | 4.0 | 11.0 | 0.00 | 0.00 | 0.00 | 42 | 1014.9 |
| 20260503172102 | 60 | 224 | 4.0 | 14.0 | 0.00 | 0.00 | 0.00 | 43 | 1014.9 |
| 20260503172002 | 60 | 221 | 5.0 | 15.0 | 0.00 | 0.00 | 0.00 | 42 | 1014.9 |
| 20260503171802 | 59 | 225 | 6.0 | 15.0 | 0.00 | 0.00 | 0.00 | 42 | 1015.1 |
| 20260503171702 | 58 | 218 | 6.0 | 15.0 | 0.00 | 0.00 | 0.00 | 43 | 1015.1 |
| 20260503171602 | 58 | 219 | 6.0 | 15.0 | 0.00 | 0.00 | 0.00 | 43 | 1015.2 |
| 20260503171503 | 58 | 214 | 6.0 | 15.0 | 0.00 | 0.00 | 0.00 | 42 | 1014.9 |
| 20260503171302 | 58 | 214 | 6.0 | 15.0 | 0.00 | 0.00 | 0.00 | 41 | 1014.9 |
| 20260503171002 | 58 | 221 | 6.0 | 14.0 | 0.00 | 0.00 | 0.00 | 42 | 1015.1 |
| 20260503170603 | 58 | 243 | 6.0 | 15.0 | 0.00 | 0.00 | 0.00 | 43 | 1015.3 |
| 20260503170502 | 58 | 243 | 6.0 | 15.0 | 0.00 | 0.00 | 0.00 | 42 | 1015.2 |
| 20260503170402 | 58 | 246 | 6.0 | 15.0 | 0.00 | 0.00 | 0.00 | 42 | 1015.2 |
| 20260503170202 | 58 | 246 | 6.0 | 15.0 | 0.00 | 0.00 | 0.00 | 42 | 1015.2 |
| 20260503150902 | 54 | 211 | 4.0 | 13.0 | 0.00 | 0.00 | 0.00 | 42 | 1016.5 |
| 20260503140302 | 50 | 168 | 3.0 | 6.0 | 0.00 | 0.00 | 0.00 | 46 | 1016.6 |
| 20260503140202 | 50 | 169 | 3.0 | 6.0 | 0.00 | 0.00 | 0.00 | 47 | 1016.6 |
| 20260503131402 | 47 | 198 | 3.0 | 8.0 | 0.00 | 0.00 | 0.00 | 51 | 1016.8 |
| 20260503131023 | 47 | 205 | 3.0 | 10.0 | 0.00 | 0.00 | 0.00 | 49 | 1017.0 |
| 20260503130902 | 47 | 200 | 3.0 | 10.0 | 0.00 | 0.00 | 0.00 | 50 | 1016.6 |
| 20260503130624 | 47 | 201 | 3.0 | 10.0 | 0.00 | 0.00 | 0.00 | 50 | 1016.7 |
| 20260503110802 | 31 | 117 | 0.0 | 1.0 | 0.00 | 0.05 | 0.00 | 92 | 1016.5 |
| 20260503110602 | 31 | 116 | 0.0 | 1.0 | 0.00 | 0.06 | 0.00 | 93 | 1016.5 |
| 20260503110123 | 31 | 117 | 0.0 | 1.0 | 0.00 | 0.06 | 0.00 | 93 | 1016.3 |
| 20260503090503 | 34 | 130 | 1.0 | 2.0 | 0.00 | 0.13 | 0.00 | 84 | 1016.3 |
| 20260503090402 | 34 | 131 | 1.0 | 2.0 | 0.00 | 0.13 | 0.00 | 85 | 1016.2 |
| 20260503090302 | 34 | 131 | 1.0 | 2.0 | 0.00 | 0.13 | 0.00 | 85 | 1016.3 |
| 20260503081602 | 34 | 0 | 0.0 | 0.0 | 0.00 | 0.13 | 0.00 | 87 | 1016.3 |
| 20260503081503 | 34 | 0 | 0.0 | 0.0 | 0.00 | 0.13 | 0.00 | 87 | 1016.3 |
| 20260503081324 | 34 | 0 | 0.0 | 0.0 | 0.00 | 0.13 | 0.00 | 87 | 1016.3 |
| 20260503081203 | 34 | 0 | 0.0 | 0.0 | 0.00 | 0.13 | 0.00 | 87 | 1016.4 |
| 20260503081102 | 34 | 0 | 0.0 | 0.0 | 0.00 | 0.13 | 0.00 | 86 | 1016.1 |
| 20260503081003 | 34 | 0 | 0.0 | 0.0 | 0.00 | 0.13 | 0.00 | 87 | 1016.4 |
| 20260503080702 | 34 | 128 | 0.0 | 2.0 | 0.00 | 0.13 | 0.00 | 87 | 1016.5 |
| 20260503080302 | 34 | 128 | 0.0 | 2.0 | 0.00 | 0.13 | 0.00 | 87 | 1016.2 |
| 20260503072902 | 33 | 0 | 0.0 | 0.0 | 0.00 | 0.13 | 0.00 | 89 | 1016.1 |
| 20260503072803 | 33 | 0 | 0.0 | 0.0 | 0.00 | 0.13 | 0.00 | 89 | 1016.4 |
| 20260503072624 | 33 | 0 | 0.0 | 0.0 | 0.00 | 0.13 | 0.00 | 88 | 1016.2 |
| 20260503072403 | 33 | 0 | 0.0 | 0.0 | 0.00 | 0.13 | 0.00 | 89 | 1016.2 |
| 20260503072202 | 34 | 116 | 0.0 | 1.0 | 0.00 | 0.13 | 0.00 | 88 | 1016.2 |